Tracking 25703 objects as of 3-Jul-2022
HD Live streaming from Space Station
objects crossing your sky now

STARLINK-2378

Track STARLINK-2378 now!
10-day predictions
STARLINK-2378 is classified as:


NORAD ID: 47916
Int'l Code: 2021-021BJ
Perigee: 553.1 km
Apogee: 555.7 km
Inclination: 53.1 °
Period: 95.6 minutes
Semi major axis: 6925 km
RCS: Unknown
Launch date: March 14, 2021
Source: United States (US)
Launch site: AIR FORCE EASTERN TEST RANGE (AFETR)
aabbcc
Your satellite tracking list
Your tracking list is empty




NASA's NSSDC Master Catalog

Two Line Element Set (TLE):
1 47916U 21021BJ  22183.50271985  .00000714  00000-0  66822-4 0  9996
2 47916  53.0551 184.8992 0001867  62.6729 297.4449 15.06395891 73414
Source of the keplerian elements: AFSPC